FLOCK 4A-2 (44080 NORAD) Tracking and Keplerian Element Data

This shows tracking and keplerian element data for the satellite.

Feedback or suggestion? Click here.




ElementValue
Catalog44080
NameFLOCK 4A-2
Epoch Orbit309
Epoch Day111.73053073
Epoch Year2019
RAAN172.1008
Inclination97.462
Eccentricity0.0012881
Argument of Perigee198.6815
Mean Anonmoly161.3949
Mean Motion15.21183262
Decay Rate9.14E-06
L11 44080U 19018C 19111.73053073 .00000914 00000-0 44093-4 0 9994
L22 44080 97.4620 172.1008 0012881 198.6815 161.3949 15.21183262 3099

Live tracking and technical data element details for FLOCK 4A-2 (NORAD 44080). FLOCK 4A-2 can be tracked NOW for your location showing map with azimuth and elevation plus other details from your city location.

Track the satellite on the map from your city or location and see movement details for azimuth, elevation, latitude, longitude, range, height, and movement on the map or in text.







IsCatalogInMostPopularTable: catalog: 44080, numindb: 3
Update: records affected: 1



GetName: 44080 FLOCK 4A-2

Hit Count: updated at: Tue, 23 Apr 2019 02:28:15 GMT